* Astronomy

Members Login
Username 
 
Password 
    Remember Me  
Post Info TOPIC: SL-8 rocket body re-entry


L

Posts: 131433
Date:
RE: SL-8 rocket body re-entry
Permalink  
 


Update:
The SL-8 rocket body re-entered the Earths atmosphere on the 22nd June, 2012 @ 23:22 GMT ± 1 minute.

Inclination: 82.83°
Revolution Number:  96935
Predicted Location:   75°S, 154°E



__________________


L

Posts: 131433
Date:
Permalink  
 

Update:
The SL-8 rocket body is predicted to re-enter the Earths atmosphere on the 22nd June, 2012 @ 23:15 GMT ± 4 hours.

SL-8 RB
1 07338U 74044B   12174.68362931  .08429135 -14252-5  28772-3 0   232
2 07338 082.8304 084.4329 0006041 306.9523 054.5148 16.44234509969309

Period:       88.29 minutes
Inclination: 82.83°
Apogee:     194 km
Perigee:     185 km 
Revolution Number:  96936
Predicted Location:   44.5°S, 12.7°E



__________________


L

Posts: 131433
Date:
Permalink  
 

Update:
The SL-8 rocket body is predicted to re-enter the Earths atmosphere on the 23rd June, 2012 @ 00:15 GMT ± 15 hours.

SL-8 RB
1 07338U 74044B   12173.95068794  .03265272 -13439-5  47728-3 0   201
2 07338 082.8457 085.2675 0004861 054.1216 306.0946 16.34669473969188

Period:       88.53 minutes
Inclination: 82.84°
Apogee:     209 km
Perigee:     195 km 
Revolution Number:  96936
Predicted Location:   61°N, 337°E



__________________


L

Posts: 131433
Date:
Permalink  
 

SL-8 RB
1 07338U 74044B   12173.82831908  .03240258 -13412-5  51628-3 0   192
2 07338 082.8457 085.4050 0004326 054.6306 306.1307 16.33830780969168

Period:       88.53 minutes
Inclination: 82.84°
Apogee:     209 km
Perigee:     195 km 
Revolution Number:  96934
Predicted Location:   46.3°N, 248.6°E



__________________


L

Posts: 131433
Date:
Permalink  
 

sl8re-entry1b.gif
Expand (28kb, 857 x 564)

The rocket body was very likely observed over Colorado at ~19:00 UT, 20th June, 2012.



__________________


L

Posts: 131433
Date:
Permalink  
 

Update:
The SL-8 rocket body is predicted to re-enter the Earths atmosphere on the 22nd June, 2012 @ 19:30 GMT ± 24 hours.

SL-8 RB
1 07338U 74044B   12172.80002681  .02128148 -13034-5  58597-3 0   124
2 07338 082.8467 086.5460 0009850 061.8606 026.4151 16.27909060968996

Period:       88.75 minutes
Inclination: 82.85°
Apogee:     223 km
Perigee:     202 km 
Revolution Number:  96934
Predicted Location:   46.3°N, 248.6°E



__________________


L

Posts: 131433
Date:
Permalink  
 

A SL-8 rocket body that was launched on the 18th June, 1974, from the Plesetsk Cosmodrome, for the KOSMOS 660 satellite missions is predicted to re-enter the Earths atmosphere on the 22nd June, 2012 @ 14:00 GMT ± 48 hours.

SL-8 RB
1 07338U 74044B   12171.18353574  .01530011 -12820-5  68558-3 0    39
2 07338 082.8434 088.3462 0018022 062.4249 297.9048 16.21785117968734

Period:       88.94 minutes
Inclination: 82.85°
Apogee:     235 km
Perigee:     209 km 
Revolution Number:  96929
Predicted Location:   25.6°N, 140°E

Kosmos 660 rocket body pass



__________________
Page 1 of 1  sorted by
 
Quick Reply

Please log in to post quick replies.



Create your own FREE Forum
Report Abuse
Powered by ActiveBoard